When you browse on this site, cookies collect data to enhance your experience and personalize the content and advertising you see.
Visit our Privacy Policy to learn more. By continuing to use the site, you agree to this use of cookies and data.
  • In Österreich
  • Länderverzeichnis
  • Für 7 Tage
  • Wassertemperatur
  • Wetterkarte
  • News
  • Widgets
  • user-avatar
    Anmelden

    Stündliche Wetter Streamwood

    Heute, 20 August, Dienstag

    Zeit Temperatur Niederschläge Wind Luftdruck Luftfeuchtigkeit
    00:00 +23°C° 0 mm 0 m/S 740 mmHg 87%
    01:00 +22°C° 0 mm 0 m/S 740 mmHg 88%
    02:00 +22°C° 0 mm 0 m/S 740 mmHg 89%
    03:00 +22°C° 0 mm 0 m/S 740 mmHg 89%
    04:00 +22°C° 0 mm 0 m/S 740 mmHg 90%
    05:00 +22°C° 0 mm 0 m/S 740 mmHg 90%
    06:00 +22°C° 0 mm 0 m/S 740 mmHg 91%
    07:00 +25°C° 0 mm 1 m/S 740 mmHg 87%
    08:00 +26°C° 0 mm 1 m/S 740 mmHg 84%
    09:00 +28°C° 0 mm 2 m/S 740 mmHg 80%
    10:00 +29°C° 0 mm 2 m/S 740 mmHg 76%
    11:00 +29°C° 0 mm 2 m/S 739 mmHg 72%
    12:00 +30°C° 0 mm 2 m/S 739 mmHg 68%
    13:00 +30°C° 0 mm 3 m/S 739 mmHg 69%
    14:00 +30°C° 0 mm 4 m/S 738 mmHg 69%
    15:00 +30°C° 0 mm 4 m/S 738 mmHg 69%
    16:00 +30°C° 0 mm 4 m/S 738 mmHg 72%
    17:00 +29°C° 0 mm 3 m/S 738 mmHg 75%
    18:00 +28°C° 0 mm 3 m/S 738 mmHg 78%
    19:00 +27°C° 0 mm 3 m/S 738 mmHg 81%
    20:00 +26°C° 0 mm 3 m/S 738 mmHg 83%
    21:00 +25°C° 0 mm 2 m/S 738 mmHg 86%
    22:00 +25°C° 0 mm 3 m/S 738 mmHg 87%
    23:00 +25°C° 0 mm 3 m/S 738 mmHg 89%

    Morgen, 21 August, Mittwoch

    Zeit Temperatur Niederschläge Wind Luftdruck Luftfeuchtigkeit
    00:00 +24°C° 0 mm 3 m/S 738 mmHg 90%
    01:00 +24°C° 0 mm 3 m/S 737 mmHg 91%
    02:00 +24°C° 0 mm 3 m/S 737 mmHg 91%
    03:00 +24°C° 0 mm 3 m/S 737 mmHg 92%
    04:00 +24°C° 0 mm 3 m/S 737 mmHg 92%
    05:00 +24°C° 0 mm 3 m/S 737 mmHg 92%
    06:00 +23°C° 0 mm 4 m/S 738 mmHg 93%
    07:00 +23°C° 0 mm 4 m/S 738 mmHg 90%
    08:00 +25°C° 0 mm 4 m/S 738 mmHg 87%
    09:00 +25°C° 0 mm 4 m/S 738 mmHg 84%
    10:00 +26°C° 0 mm 4 m/S 738 mmHg 81%
    11:00 +26°C° 0 mm 4 m/S 739 mmHg 79%
    12:00 +26°C° 0 mm 4 m/S 739 mmHg 77%
    13:00 +27°C° 0 mm 4 m/S 739 mmHg 73%
    14:00 +27°C° 0 mm 4 m/S 739 mmHg 70%
    15:00 +27°C° 0 mm 4 m/S 739 mmHg 67%
    16:00 +26°C° 0 mm 4 m/S 739 mmHg 69%
    17:00 +25°C° 0 mm 4 m/S 739 mmHg 72%
    18:00 +23°C° 0 mm 4 m/S 739 mmHg 74%
    19:00 +22°C° 0.1 mm 3 m/S 739 mmHg 75%
    20:00 +22°C° 0.1 mm 3 m/S 740 mmHg 77%
    21:00 +21°C° 0.1 mm 2 m/S 740 mmHg 78%
    22:00 +20°C° 0 mm 2 m/S 740 mmHg 80%
    23:00 +19°C° 0 mm 2 m/S 740 mmHg 82%

    übermorgen, 22 August, Donnerstag

    Zeit Temperatur Niederschläge Wind Luftdruck Luftfeuchtigkeit
    00:00 +19°C° 0 mm 2 m/S 740 mmHg 85%
    01:00 +18°C° 0 mm 2 m/S 740 mmHg 85%
    02:00 +18°C° 0 mm 2 m/S 740 mmHg 85%
    03:00 +17°C° 0 mm 2 m/S 739 mmHg 86%
    04:00 +17°C° 0 mm 2 m/S 740 mmHg 84%
    05:00 +17°C° 0 mm 2 m/S 740 mmHg 82%
    06:00 +16°C° 0 mm 2 m/S 740 mmHg 80%
    07:00 +18°C° 0 mm 2 m/S 740 mmHg 76%
    08:00 +20°C° 0 mm 2 m/S 740 mmHg 71%
    09:00 +21°C° 0 mm 2 m/S 740 mmHg 67%
    10:00 +23°C° 0 mm 2 m/S 740 mmHg 63%
    11:00 +24°C° 0 mm 2 m/S 740 mmHg 59%
    12:00 +25°C° 0 mm 3 m/S 740 mmHg 56%
    13:00 +25°C° 0 mm 3 m/S 740 mmHg 56%
    14:00 +25°C° 0 mm 3 m/S 740 mmHg 56%
    15:00 +25°C° 0 mm 3 m/S 740 mmHg 56%
    16:00 +24°C° 0 mm 3 m/S 740 mmHg 61%
    17:00 +22°C° 0 mm 3 m/S 740 mmHg 65%
    18:00 +21°C° 0 mm 3 m/S 740 mmHg 69%
    19:00 +20°C° 0 mm 2 m/S 740 mmHg 70%
    20:00 +20°C° 0 mm 2 m/S 740 mmHg 71%
    21:00 +19°C° 0 mm 2 m/S 741 mmHg 72%
    22:00 +18°C° 0 mm 2 m/S 741 mmHg 73%
    23:00 +18°C° 0 mm 2 m/S 741 mmHg 73%

    23 August, Freitag

    Zeit Temperatur Niederschläge Wind Luftdruck Luftfeuchtigkeit
    00:00 +19°C° 0 mm 1 m/S 741 mmHg 74%
    01:00 +18°C° 0 mm 2 m/S 741 mmHg 76%
    02:00 +17°C° 0 mm 2 m/S 741 mmHg 78%
    03:00 +17°C° 0 mm 2 m/S 741 mmHg 81%
    04:00 +17°C° 0 mm 2 m/S 742 mmHg 82%
    05:00 +18°C° 0 mm 3 m/S 742 mmHg 82%
    06:00 +18°C° 0 mm 3 m/S 742 mmHg 83%
    07:00 +19°C° 0.1 mm 3 m/S 743 mmHg 80%
    08:00 +20°C° 0.1 mm 4 m/S 743 mmHg 76%
    09:00 +21°C° 0.1 mm 4 m/S 743 mmHg 72%
    10:00 +22°C° 0 mm 4 m/S 743 mmHg 68%
    11:00 +23°C° 0 mm 4 m/S 743 mmHg 64%
    12:00 +25°C° 0 mm 4 m/S 743 mmHg 61%
    13:00 +25°C° 0 mm 4 m/S 742 mmHg 60%
    14:00 +25°C° 0 mm 4 m/S 742 mmHg 60%
    15:00 +25°C° 0 mm 4 m/S 742 mmHg 59%
    16:00 +23°C° 0 mm 4 m/S 742 mmHg 62%
    17:00 +22°C° 0 mm 3 m/S 742 mmHg 66%
    18:00 +21°C° 0 mm 3 m/S 742 mmHg 69%
    19:00 +20°C° 0 mm 3 m/S 742 mmHg 70%
    20:00 +19°C° 0 mm 3 m/S 743 mmHg 71%
    21:00 +19°C° 0 mm 3 m/S 743 mmHg 72%
    22:00 +18°C° 0 mm 3 m/S 743 mmHg 75%
    23:00 +18°C° 0 mm 2 m/S 743 mmHg 78%

    24 August, Samstag

    Zeit Temperatur Niederschläge Wind Luftdruck Luftfeuchtigkeit
    00:00 +18°C° 0 mm 2 m/S 743 mmHg 81%
    01:00 +18°C° 0 mm 2 m/S 743 mmHg 82%
    02:00 +18°C° 0 mm 2 m/S 743 mmHg 83%
    03:00 +19°C° 0 mm 1 m/S 743 mmHg 84%
    04:00 +18°C° 0 mm 2 m/S 743 mmHg 84%
    05:00 +18°C° 0 mm 2 m/S 743 mmHg 84%
    06:00 +18°C° 0 mm 2 m/S 744 mmHg 84%
    07:00 +19°C° 0 mm 2 m/S 744 mmHg 79%
    08:00 +21°C° 0 mm 2 m/S 744 mmHg 73%
    09:00 +22°C° 0 mm 3 m/S 744 mmHg 68%
    10:00 +24°C° 0 mm 3 m/S 744 mmHg 64%
    11:00 +25°C° 0 mm 3 m/S 744 mmHg 61%
    12:00 +26°C° 0 mm 3 m/S 744 mmHg 57%
    13:00 +26°C° 0 mm 3 m/S 743 mmHg 58%
    14:00 +26°C° 0 mm 4 m/S 743 mmHg 58%
    15:00 +26°C° 0 mm 4 m/S 743 mmHg 59%
    16:00 +25°C° 0 mm 3 m/S 742 mmHg 63%
    17:00 +24°C° 0 mm 3 m/S 742 mmHg 68%
    18:00 +22°C° 0 mm 3 m/S 742 mmHg 72%
    19:00 +21°C° 0 mm 3 m/S 742 mmHg 73%
    20:00 +20°C° 0 mm 3 m/S 742 mmHg 75%
    21:00 +19°C° 0 mm 3 m/S 742 mmHg 76%
    22:00 +19°C° 0 mm 3 m/S 742 mmHg 76%
    23:00 +19°C° 0 mm 3 m/S 742 mmHg 76%

    25 August, Sonntag

    Zeit Temperatur Niederschläge Wind Luftdruck Luftfeuchtigkeit
    00:00 +18°C° 0 mm 3 m/S 742 mmHg 76%
    01:00 +18°C° 0 mm 3 m/S 741 mmHg 77%
    02:00 +18°C° 0 mm 3 m/S 741 mmHg 77%
    03:00 +17°C° 0 mm 2 m/S 741 mmHg 77%
    04:00 +17°C° 0 mm 3 m/S 741 mmHg 79%
    05:00 +17°C° 0 mm 3 m/S 740 mmHg 82%
    06:00 +17°C° 0 mm 3 m/S 740 mmHg 84%
    07:00 +18°C° 0 mm 3 m/S 740 mmHg 79%
    08:00 +20°C° 0 mm 3 m/S 741 mmHg 74%
    09:00 +22°C° 0 mm 3 m/S 741 mmHg 69%
    10:00 +24°C° 0 mm 3 m/S 740 mmHg 66%
    11:00 +25°C° 0 mm 3 m/S 740 mmHg 62%
    12:00 +27°C° 0 mm 3 m/S 740 mmHg 59%
    13:00 +27°C° 0 mm 4 m/S 739 mmHg 60%
    14:00 +27°C° 0 mm 4 m/S 738 mmHg 61%
    15:00 +27°C° 0 mm 4 m/S 738 mmHg 62%
    16:00 +27°C° 0 mm 4 m/S 738 mmHg 67%
    17:00 +26°C° 0 mm 4 m/S 737 mmHg 71%
    18:00 +25°C° 0 mm 3 m/S 737 mmHg 76%
    19:00 +25°C° 0 mm 4 m/S 737 mmHg 76%
    20:00 +23°C° 0 mm 4 m/S 737 mmHg 76%
    21:00 +23°C° 0 mm 4 m/S 737 mmHg 76%
    22:00 +22°C° 0 mm 4 m/S 737 mmHg 78%
    23:00 +22°C° 0 mm 4 m/S 737 mmHg 80%
    Mehr zeigen